User: anonymous   Login
Location: Unspecified
(0.0000°N, 0.0000°E)
Time: 03:35:56
(UTC+00:00)
Language:

COSMOS 2463 - Orbit

View from above orbital plane
View from above orbital plane
View from above satellite
View from above satellite

Ground track
Ground track

The orbit data is extracted from the following two-line orbital elements,

1 36519U 10017A   17177.57414354 +.00000005 +00000-0 -11095-4 0  9995
2 36519 082.9603 137.2551 0035178 221.3537 138.4954 13.71412946358755
Epoch (UTC): 26 June 2017 13:46:46
Eccentricity: 0.0035178
inclination: 82.9603°
perigee height: 968 km
apogee height: 1020 km
right ascension of ascending node: 137.2551°
argument of perigee: 221.3537°
revolutions per day: 13.71412946
mean anomaly at epoch: 138.4954°
orbit number at epoch: 35875

The dashed part of the orbit path shows where the satellite is in the earth's shadow,  

DLR